Date,TemperatureHighF,TemperatureAvgF,TemperatureLowF,DewpointHighF,DewpointAvgF,DewpointLowF,HumidityHigh,HumidityAvg,HumidityLow,PressureMaxIn,PressureMinIn,WindSpeedMaxMPH,WindSpeedAvgMPH,GustSpeedMaxMPH,PrecipitationSumIn
2013-3-1,57.3,53.7,51.0,51.5,50.3,49.3,100,88,78,30.41,30.32,6,2,16,0.08
2013-3-2,57.0,48.6,37.2,49.6,44.8,36.4,100,87,71,30.32,30.11,3,0,28,0.45
2013-3-3,47.7,38.7,31.1,38.8,34.9,30.3,100,88,54,30.35,30.24,4,0,11,0.00
2013-3-4,54.2,39.3,27.3,35.8,29.7,26.0,100,73,35,30.34,29.97,2,0,6,0.01
2013-3-5,52.6,45.7,40.7,39.7,32.7,24.3,91,62,41,29.97,29.76,0,0,0,0.00
2013-3-6,42.6,40.4,37.2,41.8,39.2,35.9,100,96,91,29.94,29.62,3,0,19,0.58
2013-3-7,49.3,42.0,34.7,44.8,40.7,34.4,100,95,79,30.13,29.94,2,0,10,0.38
2013-3-8,52.0,39.2,30.5,42.2,36.1,30.3,100,90,65,30.29,30.12,2,0,7,0.00
2013-3-9,54.9,39.9,27.9,41.4,35.2,27.7,100,85,49,30.54,30.29,0,0,14,0.01
2013-3-10,47.0,41.1,34.2,42.1,38.4,32.9,97,90,76,30.54,30.47,0,0,2,0.01
2013-3-11,51.9,45.3,38.7,45.4,42.4,38.4,100,91,69,30.49,30.21,0,0,2,0.05
2013-3-12,55.0,52.2,46.3,50.2,48.3,44.8,96,87,74,30.21,30.11,0,0,0,0.00
2013-3-13,52.0,51.1,49.4,51.3,49.3,47.6,100,94,87,30.25,30.13,1,0,4,0.24
2013-3-14,52.8,50.0,47.2,51.1,47.9,44.9,100,93,80,30.19,30.07,2,0,6,0.03
2013-3-15,59.5,52.2,47.6,50.3,48.3,45.9,97,87,69,30.25,30.17,0,0,0,0.00
2013-3-16,49.6,45.7,37.3,46.2,41.8,34.8,92,86,72,30.18,29.92,0,0,0,0.06
2013-3-17,48.6,41.3,36.1,38.6,35.5,33.0,95,81,57,30.24,30.02,0,0,0,0.02
2013-3-19,56.2,44.5,31.8,40.9,34.8,26.2,100,73,33,30.16,29.65,0,0,0,0.25
2013-3-20,51.6,45.3,34.7,48.7,41.5,33.3,100,87,70,30.06,29.43,0,0,0,0.78
2013-3-21,46.1,38.2,33.0,37.9,35.1,33.0,100,89,67,30.26,30.06,0,0,2,0.21
2013-3-22,45.9,36.5,29.6,36.9,32.6,28.6,100,87,58,30.42,30.26,2,0,6,0.16
2013-3-23,51.6,38.1,29.3,32.4,29.0,23.0,100,74,36,30.44,30.35,0,0,0,0.00
2013-3-24,56.8,41.2,28.0,35.4,28.6,24.6,100,67,31,30.35,30.17,0,0,0,0.00
2013-3-25,62.1,47.9,33.4,36.2,30.6,26.5,81,54,31,30.18,29.97,0,0,0,0.00
2013-3-26,61.5,49.9,41.8,42.8,38.5,36.0,85,67,40,30.06,30.00,0,0,0,0.00
2013-3-27,58.2,48.2,42.2,49.0,42.9,39.3,100,83,58,30.03,29.98,0,0,1,0.02
2013-3-28,63.4,50.3,41.3,50.1,44.9,41.0,100,84,52,30.19,30.03,0,0,0,0.02
2013-3-29,65.0,51.5,40.4,48.2,44.3,39.8,100,79,51,30.29,30.19,0,0,6,0.01
2013-3-30,67.7,51.8,36.9,47.2,43.4,36.8,100,76,44,30.30,30.12,0,0,6,0.00
2013-3-31,72.5,54.4,39.1,47.6,44.0,39.1,100,72,37,30.11,29.94,0,0,0,0.00